Time,TemperatureF,DewpointF,PressureIn,WindDirection,WindDirectionDegrees,WindSpeedMPH,WindSpeedGustMPH,Humidity,HourlyPrecipIn,Conditions,Clouds,dailyrainin,SolarRadiationWatts/m^2,SoftwareType,DateUTC
2013-08-22 00:03:00,50.0,49.0,-100.00,South,175,0.0,1.0,98,0.00,,,0.00,0.000000,,2013-08-22 08:03:00,
2013-08-22 00:12:00,50.0,49.0,-100.00,South,175,0.0,1.0,98,0.00,,,0.00,0.000000,,2013-08-22 08:12:00,
2013-08-22 00:22:00,50.0,49.0,-100.00,South,175,0.0,1.0,98,0.00,,,0.00,0.000000,,2013-08-22 08:22:00,
2013-08-22 00:53:00,50.0,49.0,-100.00,SSE,162,0.0,1.0,98,0.00,,,0.00,0.000000,,2013-08-22 08:53:00,
2013-08-22 01:01:00,50.0,49.0,-100.00,SSE,162,0.0,1.0,98,0.00,,,0.00,0.000000,,2013-08-22 09:01:00,
2013-08-22 01:11:00,50.0,49.0,-100.00,SSE,162,0.0,1.0,98,0.00,,,0.00,0.000000,,2013-08-22 09:11:00,
2013-08-22 01:22:00,50.0,49.0,-100.00,SSE,162,0.0,1.0,98,0.00,,,0.00,0.000000,,2013-08-22 09:22:00,
2013-08-22 01:54:00,50.0,50.0,-100.00,SSE,164,1.0,2.0,99,0.00,,,-99.99,0.000000,,2013-08-22 09:54:00,
2013-08-22 02:03:00,50.0,50.0,-100.00,SSE,164,1.0,2.0,99,0.00,,,-99.99,0.000000,,2013-08-22 10:03:00,
2013-08-22 02:12:00,50.0,50.0,-100.00,SSE,164,1.0,2.0,99,0.00,,,-99.99,0.000000,,2013-08-22 10:12:00,
2013-08-22 02:22:00,50.0,50.0,-100.00,SSE,164,1.0,2.0,99,0.00,,,-99.99,0.000000,,2013-08-22 10:22:00,
2013-08-22 02:24:00,50.0,50.0,-100.00,South,171,1.0,2.0,99,0.00,,,0.00,0.000000,,2013-08-22 10:24:00,
2013-08-22 04:52:00,50.0,50.0,-100.00,SSE,167,0.0,3.0,99,0.00,,,0.00,0.000000,,2013-08-22 12:52:00,
2013-08-22 05:02:00,50.0,50.0,-100.00,SSE,167,0.0,3.0,99,0.00,,,0.00,0.000000,,2013-08-22 13:02:00,
2013-08-22 05:12:00,50.0,50.0,-100.00,SSE,167,0.0,3.0,99,0.00,,,0.00,0.000000,,2013-08-22 13:12:00,
2013-08-22 05:22:00,50.0,50.0,-100.00,SSE,167,0.0,3.0,99,0.00,,,0.00,0.000000,,2013-08-22 13:22:00,
2013-08-22 05:52:00,50.0,50.0,-100.00,South,173,1.0,3.0,99,0.00,,,0.00,0.000000,,2013-08-22 13:52:00,
2013-08-22 06:01:00,50.0,50.0,-100.00,South,173,1.0,3.0,99,0.00,,,0.00,0.000000,,2013-08-22 14:01:00,
2013-08-22 06:11:00,50.0,50.0,-100.00,South,173,1.0,3.0,99,0.00,,,0.00,0.000000,,2013-08-22 14:11:00,
2013-08-22 06:21:00,50.0,50.0,-100.00,South,173,1.0,3.0,99,0.00,,,0.00,0.000000,,2013-08-22 14:21:00,
2013-08-22 06:52:00,50.0,50.0,-100.00,SSE,165,1.0,2.0,100,0.02,,,0.02,0.000000,,2013-08-22 14:52:00,
2013-08-22 07:01:00,50.0,50.0,-100.00,SSE,165,1.0,2.0,100,0.02,,,0.02,0.000000,,2013-08-22 15:01:00,
2013-08-22 07:11:00,50.0,50.0,-100.00,SSE,165,1.0,2.0,100,0.02,,,0.02,0.000000,,2013-08-22 15:11:00,
2013-08-22 07:22:00,50.0,50.0,-100.00,SSE,165,1.0,2.0,100,0.02,,,0.02,0.000000,,2013-08-22 15:22:00,
2013-08-22 07:24:00,50.0,50.0,-100.00,SSE,160,1.0,3.0,100,-99.99,,,0.00,4.000000,,2013-08-22 15:24:00,
2013-08-22 07:55:00,50.0,50.0,-100.00,SSE,160,1.0,3.0,100,-99.99,,,0.00,4.000000,,2013-08-22 15:55:00,
2013-08-22 08:05:00,50.0,50.0,-100.00,SSE,160,1.0,3.0,100,-99.99,,,0.00,4.000000,,2013-08-22 16:05:00,
2013-08-22 08:14:00,50.0,50.0,-100.00,SSE,160,1.0,3.0,100,-99.99,,,0.00,4.000000,,2013-08-22 16:14:00,
2013-08-22 08:54:00,50.0,50.0,-100.00,SE,144,1.0,2.0,100,0.01,,,0.01,15.000000,,2013-08-22 16:54:00,
2013-08-22 09:02:00,50.0,50.0,-100.00,SE,144,1.0,2.0,100,0.01,,,0.01,15.000000,,2013-08-22 17:02:00,
2013-08-22 09:12:00,50.0,50.0,-100.00,SE,144,1.0,2.0,100,0.01,,,0.01,15.000000,,2013-08-22 17:12:00,
2013-08-22 09:23:00,50.0,50.0,-100.00,SE,144,1.0,2.0,100,0.01,,,0.01,15.000000,,2013-08-22 17:23:00,
2013-08-22 09:53:00,50.0,50.0,-100.00,SE,141,1.0,2.0,100,0.01,,,0.02,34.000000,,2013-08-22 17:53:00,
2013-08-22 10:02:00,50.0,50.0,-100.00,SE,141,1.0,2.0,100,0.01,,,0.02,34.000000,,2013-08-22 18:02:00,
2013-08-22 10:12:00,50.0,50.0,-100.00,SE,141,1.0,2.0,100,0.01,,,0.02,34.000000,,2013-08-22 18:12:00,
2013-08-22 10:21:00,50.0,50.0,-100.00,SE,141,1.0,2.0,100,0.01,,,0.02,34.000000,,2013-08-22 18:21:00,
2013-08-22 11:22:00,52.0,50.0,-100.00,North,352,1.0,3.0,94,-99.99,,,0.01,40.000000,,2013-08-22 19:22:00,
2013-08-22 11:53:00,52.0,50.0,-100.00,NNE,15,1.0,3.0,94,-99.99,,,0.00,68.000000,,2013-08-22 19:53:00,
2013-08-22 12:02:00,52.0,50.0,-100.00,NNE,15,1.0,3.0,94,-99.99,,,0.00,68.000000,,2013-08-22 20:02:00,
2013-08-22 12:11:00,52.0,50.0,-100.00,NNE,15,1.0,3.0,94,-99.99,,,0.00,68.000000,,2013-08-22 20:11:00,
2013-08-22 12:23:00,52.0,50.0,-100.00,NNE,15,1.0,3.0,94,-99.99,,,0.00,68.000000,,2013-08-22 20:23:00,
2013-08-22 12:52:00,54.0,51.0,-100.00,North,7,2.0,5.0,92,0.00,,,0.00,118.000000,,2013-08-22 20:52:00,
2013-08-22 13:02:00,54.0,51.0,-100.00,North,7,2.0,5.0,92,0.00,,,0.00,118.000000,,2013-08-22 21:02:00,
2013-08-22 13:13:00,54.0,51.0,-100.00,North,7,2.0,5.0,92,0.00,,,0.00,118.000000,,2013-08-22 21:13:00,
2013-08-22 13:22:00,54.0,51.0,-100.00,North,7,2.0,5.0,92,0.00,,,0.00,118.000000,,2013-08-22 21:22:00,
2013-08-22 13:24:00,54.0,50.0,-100.00,SE,126,1.0,3.0,88,0.00,,,0.00,143.000000,,2013-08-22 21:24:00,
2013-08-22 13:54:00,54.0,50.0,-100.00,SE,126,1.0,3.0,88,0.00,,,0.00,143.000000,,2013-08-22 21:54:00,
2013-08-22 14:05:00,54.0,50.0,-100.00,SE,126,1.0,3.0,88,0.00,,,0.00,143.000000,,2013-08-22 22:05:00,
2013-08-22 14:13:00,54.0,50.0,-100.00,SE,126,1.0,3.0,88,0.00,,,0.00,143.000000,,2013-08-22 22:13:00,
2013-08-22 14:53:00,55.0,51.0,-100.00,SSE,161,2.0,4.0,84,0.00,,,0.00,177.000000,,2013-08-22 22:53:00,
2013-08-22 15:02:00,55.0,51.0,-100.00,SSE,161,2.0,4.0,84,0.00,,,0.00,177.000000,,2013-08-22 23:02:00,
2013-08-22 15:11:00,55.0,51.0,-100.00,SSE,161,2.0,4.0,84,0.00,,,0.00,177.000000,,2013-08-22 23:11:00,
2013-08-22 15:22:00,55.0,51.0,-100.00,SSE,161,2.0,4.0,84,0.00,,,0.00,177.000000,,2013-08-22 23:22:00,
2013-08-22 15:53:00,55.0,53.0,-100.00,SSE,159,2.0,5.0,91,0.00,,,0.00,90.000000,,2013-08-22 23:53:00,
2013-08-22 16:02:00,55.0,53.0,-100.00,SSE,159,2.0,5.0,91,0.00,,,0.00,90.000000,,2013-08-23 00:02:00,
2013-08-22 16:11:00,55.0,53.0,-100.00,SSE,159,2.0,5.0,91,0.00,,,0.00,90.000000,,2013-08-23 00:11:00,
2013-08-22 16:23:00,55.0,53.0,-100.00,SSE,159,2.0,5.0,91,0.00,,,0.00,90.000000,,2013-08-23 00:23:00,
2013-08-22 16:52:00,55.0,52.0,-100.00,SE,145,2.0,5.0,87,0.00,,,0.00,84.000000,,2013-08-23 00:52:00,
2013-08-22 17:01:00,55.0,52.0,-100.00,SE,145,2.0,5.0,87,0.00,,,0.00,84.000000,,2013-08-23 01:01:00,
2013-08-22 17:11:00,55.0,52.0,-100.00,SE,145,2.0,5.0,87,0.00,,,0.00,84.000000,,2013-08-23 01:11:00,
2013-08-22 17:21:00,55.0,52.0,-100.00,SE,145,2.0,5.0,87,0.00,,,0.00,84.000000,,2013-08-23 01:21:00,
2013-08-22 17:52:00,55.0,52.0,-100.00,SSE,155,2.0,5.0,87,0.00,,,0.00,90.000000,,2013-08-23 01:52:00,
2013-08-22 18:02:00,55.0,52.0,-100.00,SSE,155,2.0,5.0,87,0.00,,,0.00,90.000000,,2013-08-23 02:02:00,
2013-08-22 18:11:00,55.0,52.0,-100.00,SSE,155,2.0,5.0,87,0.00,,,0.00,90.000000,,2013-08-23 02:11:00,
2013-08-22 18:22:00,55.0,52.0,-100.00,SSE,155,2.0,5.0,87,0.00,,,0.00,90.000000,,2013-08-23 02:22:00,
2013-08-22 18:52:00,55.0,51.0,-100.00,SSE,154,1.0,4.0,84,0.00,,,0.00,71.000000,,2013-08-23 02:52:00,
2013-08-22 19:02:00,55.0,51.0,-100.00,SSE,154,1.0,4.0,84,0.00,,,0.00,71.000000,,2013-08-23 03:02:00,
2013-08-22 19:11:00,55.0,51.0,-100.00,SSE,154,1.0,4.0,84,0.00,,,0.00,71.000000,,2013-08-23 03:11:00,
2013-08-22 19:22:00,55.0,51.0,-100.00,SSE,154,1.0,4.0,84,0.00,,,0.00,71.000000,,2013-08-23 03:22:00,
2013-08-22 19:24:00,55.0,53.0,-100.00,SSE,147,2.0,3.0,90,0.00,,,0.00,42.000000,,2013-08-23 03:24:00,
2013-08-22 19:55:00,55.0,53.0,-100.00,SSE,147,2.0,3.0,90,0.00,,,0.00,42.000000,,2013-08-23 03:55:00,
2013-08-22 20:04:00,55.0,53.0,-100.00,SSE,147,2.0,3.0,90,0.00,,,0.00,42.000000,,2013-08-23 04:04:00,
2013-08-22 20:13:00,55.0,53.0,-100.00,SSE,147,2.0,3.0,90,0.00,,,0.00,42.000000,,2013-08-23 04:13:00,
2013-08-22 20:54:00,54.0,52.0,-100.00,SE,146,1.0,3.0,94,0.00,,,0.00,15.000000,,2013-08-23 04:54:00,
2013-08-22 21:03:00,54.0,52.0,-100.00,SE,146,1.0,3.0,94,0.00,,,0.00,15.000000,,2013-08-23 05:03:00,
2013-08-22 21:13:00,54.0,52.0,-100.00,SE,146,1.0,3.0,94,0.00,,,0.00,15.000000,,2013-08-23 05:13:00,
2013-08-22 21:22:00,54.0,52.0,-100.00,SE,146,1.0,3.0,94,0.00,,,0.00,15.000000,,2013-08-23 05:22:00,
2013-08-22 21:52:00,54.0,50.0,-100.00,SE,134,1.0,3.0,89,0.00,,,0.00,3.000000,,2013-08-23 05:52:00,
2013-08-22 22:02:00,54.0,50.0,-100.00,SE,134,1.0,3.0,89,0.00,,,0.00,3.000000,,2013-08-23 06:02:00,
2013-08-22 22:12:00,54.0,50.0,-100.00,SE,134,1.0,3.0,89,0.00,,,0.00,3.000000,,2013-08-23 06:12:00,
2013-08-22 22:21:00,54.0,50.0,-100.00,SE,134,1.0,3.0,89,0.00,,,0.00,3.000000,,2013-08-23 06:21:00,
2013-08-22 22:52:00,52.0,50.0,-100.00,SE,141,1.0,3.0,94,0.00,,,0.00,0.000000,,2013-08-23 06:52:00,
2013-08-22 23:01:00,52.0,50.0,-100.00,SE,141,1.0,3.0,94,0.00,,,0.00,0.000000,,2013-08-23 07:01:00,
2013-08-22 23:11:00,52.0,50.0,-100.00,SE,141,1.0,3.0,94,0.00,,,0.00,0.000000,,2013-08-23 07:11:00,
2013-08-22 23:21:00,52.0,50.0,-100.00,SE,141,1.0,3.0,94,0.00,,,0.00,0.000000,,2013-08-23 07:21:00,
2013-08-22 23:52:00,52.0,50.0,-100.00,SSE,158,1.0,2.0,94,0.00,,,0.00,0.000000,,2013-08-23 07:52:00,